Time,TemperatureF,DewpointF,PressureIn,WindDirection,WindDirectionDegrees,WindSpeedMPH,WindSpeedGustMPH,Humidity,HourlyPrecipIn,Conditions,Clouds,dailyrainin,SoftwareType,DateUTC
2013-06-08 00:02:00,69.0,23.6,29.94,North,360,0.0,11.0,18,0.00,,,0.00,Weather View 32 v70,2013-06-08 06:02:00,
2013-06-08 00:07:00,69.0,23.6,29.94,NW,315,4.0,10.0,18,0.00,,,0.00,Weather View 32 v70,2013-06-08 06:07:00,
2013-06-08 00:12:00,69.0,26.2,29.95,NW,315,2.0,7.0,20,0.00,,,0.00,Weather View 32 v70,2013-06-08 06:12:00,
2013-06-08 00:17:00,68.0,27.6,29.95,NW,315,4.0,7.0,22,0.00,,,0.00,Weather View 32 v70,2013-06-08 06:17:00,
2013-06-08 00:22:00,67.0,28.9,29.95,NW,315,3.0,7.0,24,0.00,,,0.00,Weather View 32 v70,2013-06-08 06:22:00,
2013-06-08 00:27:00,67.0,26.8,29.95,NW,315,4.0,7.0,22,0.00,,,0.00,Weather View 32 v70,2013-06-08 06:27:00,
2013-06-08 00:32:00,66.0,29.1,29.96,West,270,3.0,7.0,25,0.00,,,0.00,Weather View 32 v70,2013-06-08 06:32:00,
2013-06-08 00:37:00,66.0,24.9,29.96,NW,315,7.0,8.0,21,0.00,,,0.00,Weather View 32 v70,2013-06-08 06:37:00,
2013-06-08 00:42:00,65.0,24.0,29.95,NW,315,6.0,9.0,21,0.00,,,0.00,Weather View 32 v70,2013-06-08 06:42:00,
2013-06-08 00:47:00,65.0,25.1,29.95,NW,315,6.0,9.0,22,0.00,,,0.00,Weather View 32 v70,2013-06-08 06:47:00,
2013-06-08 00:52:00,65.0,25.1,29.96,NW,315,5.0,10.0,22,0.00,,,0.00,Weather View 32 v70,2013-06-08 06:52:00,
2013-06-08 00:57:00,64.0,23.2,29.96,North,360,7.0,10.0,21,0.00,,,0.00,Weather View 32 v70,2013-06-08 06:57:00,
2013-06-08 01:02:00,65.0,22.9,29.96,North,360,8.0,10.0,20,0.00,,,0.00,Weather View 32 v70,2013-06-08 07:02:00,
2013-06-08 01:07:00,65.0,22.9,29.96,North,360,7.0,10.0,20,0.00,,,0.00,Weather View 32 v70,2013-06-08 07:07:00,
2013-06-08 01:12:00,65.0,22.9,29.96,NNE,22,9.0,10.0,20,0.00,,,0.00,Weather View 32 v70,2013-06-08 07:12:00,
2013-06-08 01:17:00,65.0,22.9,29.96,NNE,22,9.0,10.0,20,0.00,,,0.00,Weather View 32 v70,2013-06-08 07:17:00,
2013-06-08 01:22:00,65.0,25.1,29.96,North,360,4.0,10.0,22,0.00,,,0.00,Weather View 32 v70,2013-06-08 07:22:00,
2013-06-08 01:27:00,64.0,24.3,29.96,North,360,9.0,10.0,22,0.00,,,0.00,Weather View 32 v70,2013-06-08 07:27:00,
2013-06-08 01:32:00,64.0,25.4,29.96,North,360,5.0,10.0,23,0.00,,,0.00,Weather View 32 v70,2013-06-08 07:32:00,
2013-06-08 01:37:00,64.0,26.4,29.96,North,360,3.0,10.0,24,0.00,,,0.00,Weather View 32 v70,2013-06-08 07:37:00,
2013-06-08 01:42:00,64.0,26.4,29.95,North,360,0.0,10.0,24,0.00,,,0.00,Weather View 32 v70,2013-06-08 07:42:00,
2013-06-08 01:47:00,63.0,24.5,29.95,North,360,4.0,10.0,23,0.00,,,0.00,Weather View 32 v70,2013-06-08 07:47:00,
2013-06-08 01:52:00,63.0,25.6,29.96,North,360,1.0,10.0,24,0.00,,,0.00,Weather View 32 v70,2013-06-08 07:52:00,
2013-06-08 01:57:00,63.0,26.5,29.96,North,360,0.0,10.0,25,0.00,,,0.00,Weather View 32 v70,2013-06-08 07:57:00,
2013-06-08 02:03:00,62.0,25.7,29.96,North,360,1.0,10.0,25,0.00,,,0.00,Weather View 32 v70,2013-06-08 08:03:00,
2013-06-08 02:08:00,62.0,26.6,29.96,North,360,0.0,10.0,26,0.00,,,0.00,Weather View 32 v70,2013-06-08 08:08:00,
2013-06-08 02:13:00,61.0,28.4,29.96,North,360,0.0,10.0,29,0.00,,,0.00,Weather View 32 v70,2013-06-08 08:13:00,
2013-06-08 02:18:00,61.0,26.7,29.96,North,360,3.0,9.0,27,0.00,,,0.00,Weather View 32 v70,2013-06-08 08:18:00,
2013-06-08 02:23:00,61.0,25.8,29.96,North,360,2.0,9.0,26,0.00,,,0.00,Weather View 32 v70,2013-06-08 08:23:00,
2013-06-08 02:28:00,61.0,27.6,29.96,North,360,3.0,8.0,28,0.00,,,0.00,Weather View 32 v70,2013-06-08 08:28:00,
2013-06-08 02:33:00,61.0,27.6,29.96,North,360,0.0,6.0,28,0.00,,,0.00,Weather View 32 v70,2013-06-08 08:33:00,
2013-06-08 02:38:00,61.0,25.8,29.97,North,360,0.0,4.0,26,0.00,,,0.00,Weather View 32 v70,2013-06-08 08:38:00,
2013-06-08 02:43:00,60.0,25.9,29.97,North,360,0.0,4.0,27,0.00,,,0.00,Weather View 32 v70,2013-06-08 08:43:00,
2013-06-08 02:48:00,60.0,25.9,29.96,North,360,0.0,4.0,27,0.00,,,0.00,Weather View 32 v70,2013-06-08 08:48:00,
2013-06-08 02:53:00,60.0,26.7,29.96,North,360,0.0,4.0,28,0.00,,,0.00,Weather View 32 v70,2013-06-08 08:53:00,
2013-06-08 02:58:00,60.0,27.6,29.96,North,360,0.0,4.0,29,0.00,,,0.00,Weather View 32 v70,2013-06-08 08:58:00,
2013-06-08 03:03:00,59.0,29.1,29.96,North,360,0.0,4.0,32,0.00,,,0.00,Weather View 32 v70,2013-06-08 09:03:00,
2013-06-08 03:08:00,59.0,29.9,29.97,NE,45,4.0,4.0,33,0.00,,,0.00,Weather View 32 v70,2013-06-08 09:08:00,
2013-06-08 03:13:00,58.0,27.5,29.97,ENE,67,6.0,8.0,31,0.00,,,0.00,Weather View 32 v70,2013-06-08 09:13:00,
2013-06-08 03:18:00,59.0,26.7,29.98,NE,45,4.0,8.0,29,0.00,,,0.00,Weather View 32 v70,2013-06-08 09:18:00,
2013-06-08 03:23:00,59.0,25.9,29.98,ENE,67,5.0,8.0,28,0.00,,,0.00,Weather View 32 v70,2013-06-08 09:23:00,
2013-06-08 03:28:00,59.0,25.9,29.97,ENE,67,6.0,8.0,28,0.00,,,0.00,Weather View 32 v70,2013-06-08 09:28:00,
2013-06-08 03:33:00,59.0,25.9,29.97,NE,45,5.0,8.0,28,0.00,,,0.00,Weather View 32 v70,2013-06-08 09:33:00,
2013-06-08 03:38:00,59.0,25.0,29.97,NE,45,6.0,8.0,27,0.00,,,0.00,Weather View 32 v70,2013-06-08 09:38:00,
2013-06-08 03:43:00,59.0,25.0,29.97,NE,45,5.0,8.0,27,0.00,,,0.00,Weather View 32 v70,2013-06-08 09:43:00,
2013-06-08 03:48:00,59.0,25.0,29.98,NE,45,4.0,8.0,27,0.00,,,0.00,Weather View 32 v70,2013-06-08 09:48:00,
2013-06-08 03:53:00,59.0,25.9,29.98,NE,45,3.0,8.0,28,0.00,,,0.00,Weather View 32 v70,2013-06-08 09:53:00,
2013-06-08 03:58:00,59.0,25.0,29.98,NE,45,4.0,8.0,27,0.00,,,0.00,Weather View 32 v70,2013-06-08 09:58:00,
2013-06-08 04:03:00,59.0,25.9,29.98,NE,45,3.0,8.0,28,0.00,,,0.00,Weather View 32 v70,2013-06-08 10:03:00,
2013-06-08 04:08:00,58.0,25.9,29.97,East,90,5.0,8.0,29,0.00,,,0.00,Weather View 32 v70,2013-06-08 10:08:00,
2013-06-08 04:13:00,58.0,26.7,29.97,East,90,0.0,8.0,30,0.00,,,0.00,Weather View 32 v70,2013-06-08 10:13:00,
2013-06-08 04:18:00,58.0,27.5,29.98,East,90,4.0,8.0,31,0.00,,,0.00,Weather View 32 v70,2013-06-08 10:18:00,
2013-06-08 04:23:00,57.0,27.4,29.98,East,90,3.0,8.0,32,0.00,,,0.00,Weather View 32 v70,2013-06-08 10:23:00,
2013-06-08 04:28:00,57.0,28.1,29.98,East,90,0.0,8.0,33,0.00,,,0.00,Weather View 32 v70,2013-06-08 10:28:00,
2013-06-08 04:33:00,57.0,28.9,29.98,East,90,2.0,8.0,34,0.00,,,0.00,Weather View 32 v70,2013-06-08 10:33:00,
2013-06-08 04:38:00,57.0,28.9,29.98,East,90,0.0,8.0,34,0.00,,,0.00,Weather View 32 v70,2013-06-08 10:38:00,
2013-06-08 04:43:00,56.0,30.0,29.98,East,90,0.0,7.0,37,0.00,,,0.00,Weather View 32 v70,2013-06-08 10:43:00,
2013-06-08 04:48:00,56.0,28.7,29.98,East,90,0.0,6.0,35,0.00,,,0.00,Weather View 32 v70,2013-06-08 10:48:00,
2013-06-08 04:53:00,56.0,30.0,29.98,East,90,3.0,6.0,37,0.00,,,0.00,Weather View 32 v70,2013-06-08 10:53:00,
2013-06-08 04:58:00,55.0,29.2,29.99,East,90,4.0,6.0,37,0.00,,,0.00,Weather View 32 v70,2013-06-08 10:58:00,
2013-06-08 05:03:00,55.0,29.8,29.99,East,90,1.0,6.0,38,0.00,,,0.00,Weather View 32 v70,2013-06-08 11:03:00,
2013-06-08 05:08:00,55.0,29.2,29.99,East,90,0.0,6.0,37,0.00,,,0.00,Weather View 32 v70,2013-06-08 11:08:00,
2013-06-08 05:13:00,54.0,29.6,29.99,East,90,0.0,6.0,39,0.00,,,0.00,Weather View 32 v70,2013-06-08 11:13:00,
2013-06-08 05:18:00,55.0,30.4,29.99,East,90,0.0,6.0,39,0.00,,,0.00,Weather View 32 v70,2013-06-08 11:18:00,
2013-06-08 05:23:00,54.0,30.2,29.99,East,90,2.0,5.0,40,0.00,,,0.00,Weather View 32 v70,2013-06-08 11:23:00,
2013-06-08 05:28:00,54.0,30.8,29.99,East,90,3.0,4.0,41,0.00,,,0.00,Weather View 32 v70,2013-06-08 11:28:00,
2013-06-08 05:33:00,53.0,29.9,29.99,East,90,3.0,4.0,41,0.00,,,0.00,Weather View 32 v70,2013-06-08 11:33:00,
2013-06-08 05:38:00,54.0,29.6,29.99,East,90,3.0,5.0,39,0.00,,,0.00,Weather View 32 v70,2013-06-08 11:38:00,
2013-06-08 05:43:00,54.0,28.9,29.99,East,90,1.0,5.0,38,0.00,,,0.00,Weather View 32 v70,2013-06-08 11:43:00,
2013-06-08 05:48:00,54.0,27.6,29.99,East,90,1.0,5.0,36,0.00,,,0.00,Weather View 32 v70,2013-06-08 11:48:00,
2013-06-08 05:54:00,54.0,26.2,29.99,NE,45,5.0,7.0,34,0.00,,,0.00,Weather View 32 v70,2013-06-08 11:54:00,
2013-06-08 05:59:00,54.0,26.9,29.99,ENE,67,4.0,7.0,35,0.00,,,0.00,Weather View 32 v70,2013-06-08 11:59:00,
2013-06-08 06:04:00,54.0,26.9,29.99,ENE,67,5.0,7.0,35,0.00,,,0.00,Weather View 32 v70,2013-06-08 12:04:00,
2013-06-08 06:09:00,54.0,27.6,30.00,East,90,7.0,7.0,36,0.00,,,0.00,Weather View 32 v70,2013-06-08 12:09:00,
2013-06-08 06:14:00,54.0,28.3,30.00,East,90,6.0,7.0,37,0.00,,,0.00,Weather View 32 v70,2013-06-08 12:14:00,
2013-06-08 06:19:00,54.0,28.3,30.01,East,90,4.0,7.0,37,0.00,,,0.00,Weather View 32 v70,2013-06-08 12:19:00,
2013-06-08 06:24:00,54.0,28.9,30.01,East,90,4.0,7.0,38,0.00,,,0.00,Weather View 32 v70,2013-06-08 12:24:00,
2013-06-08 06:29:00,54.0,28.3,30.01,East,90,5.0,7.0,37,0.00,,,0.00,Weather View 32 v70,2013-06-08 12:29:00,
2013-06-08 06:34:00,55.0,27.1,30.01,East,90,5.0,8.0,34,0.00,,,0.00,Weather View 32 v70,2013-06-08 12:34:00,
2013-06-08 06:39:00,55.0,26.4,30.00,ENE,67,4.0,8.0,33,0.00,,,0.00,Weather View 32 v70,2013-06-08 12:39:00,
2013-06-08 06:45:00,56.0,27.2,30.00,ENE,67,0.0,8.0,33,0.00,,,0.00,Weather View 32 v70,2013-06-08 12:45:00,
2013-06-08 06:50:00,57.0,27.4,30.01,ENE,67,2.0,8.0,32,0.00,,,0.00,Weather View 32 v70,2013-06-08 12:50:00,
2013-06-08 06:56:00,58.0,27.5,30.01,East,90,5.0,8.0,31,0.00,,,0.00,Weather View 32 v70,2013-06-08 12:56:00,
2013-06-08 07:01:00,59.0,28.3,30.00,East,90,6.0,8.0,31,0.00,,,0.00,Weather View 32 v70,2013-06-08 13:01:00,
2013-06-08 07:07:00,59.0,26.7,30.00,East,90,5.0,8.0,29,0.00,,,0.00,Weather View 32 v70,2013-06-08 13:07:00,
2013-06-08 07:12:00,60.0,27.6,30.00,East,90,6.0,8.0,29,0.00,,,0.00,Weather View 32 v70,2013-06-08 13:12:00,
2013-06-08 07:17:00,60.0,28.4,30.00,East,90,3.0,8.0,30,0.00,,,0.00,Weather View 32 v70,2013-06-08 13:17:00,
2013-06-08 07:22:00,60.0,28.4,30.00,East,90,5.0,8.0,30,0.00,,,0.00,Weather View 32 v70,2013-06-08 13:22:00,
2013-06-08 07:27:00,61.0,29.3,30.00,East,90,4.0,8.0,30,0.00,,,0.00,Weather View 32 v70,2013-06-08 13:27:00,
2013-06-08 07:32:00,61.0,28.4,29.99,East,90,4.0,7.0,29,0.00,,,0.00,Weather View 32 v70,2013-06-08 13:32:00,
2013-06-08 07:37:00,62.0,29.3,29.99,East,90,6.0,7.0,29,0.00,,,0.00,Weather View 32 v70,2013-06-08 13:37:00,
2013-06-08 07:42:00,62.0,27.6,30.00,East,90,6.0,7.0,27,0.00,,,0.00,Weather View 32 v70,2013-06-08 13:42:00,
2013-06-08 07:47:00,63.0,28.4,30.00,East,90,9.0,9.0,27,0.00,,,0.00,Weather View 32 v70,2013-06-08 13:47:00,
2013-06-08 07:53:00,63.0,28.4,30.00,East,90,8.0,10.0,27,0.00,,,0.00,Weather View 32 v70,2013-06-08 13:53:00,
2013-06-08 07:58:00,64.0,28.4,29.99,East,90,6.0,10.0,26,0.00,,,0.00,Weather View 32 v70,2013-06-08 13:58:00,
2013-06-08 08:03:00,64.0,28.4,29.99,East,90,4.0,10.0,26,0.00,,,0.00,Weather View 32 v70,2013-06-08 14:03:00,
2013-06-08 08:08:00,65.0,28.2,29.99,East,90,4.0,10.0,25,0.00,,,0.00,Weather View 32 v70,2013-06-08 14:08:00,
2013-06-08 08:13:00,65.0,27.2,29.99,East,90,4.0,10.0,24,0.00,,,0.00,Weather View 32 v70,2013-06-08 14:13:00,
2013-06-08 08:18:00,66.0,27.1,29.99,East,90,7.0,10.0,23,0.00,,,0.00,Weather View 32 v70,2013-06-08 14:18:00,
2013-06-08 08:23:00,66.0,28.1,29.99,ESE,112,7.0,10.0,24,0.00,,,0.00,Weather View 32 v70,2013-06-08 14:23:00,
2013-06-08 08:28:00,67.0,28.9,29.99,East,90,8.0,10.0,24,0.00,,,0.00,Weather View 32 v70,2013-06-08 14:28:00,
2013-06-08 08:33:00,67.0,27.9,29.99,East,90,5.0,10.0,23,0.00,,,0.00,Weather View 32 v70,2013-06-08 14:33:00,
2013-06-08 08:38:00,68.0,27.6,29.99,ESE,112,3.0,10.0,22,0.00,,,0.00,Weather View 32 v70,2013-06-08 14:38:00,
2013-06-08 08:43:00,69.0,28.5,29.99,East,90,6.0,10.0,22,0.00,,,0.00,Weather View 32 v70,2013-06-08 14:43:00,
2013-06-08 08:48:00,69.0,27.3,29.99,East,90,2.0,9.0,21,0.00,,,0.00,Weather View 32 v70,2013-06-08 14:48:00,
2013-06-08 08:53:00,70.0,28.2,29.99,East,90,7.0,9.0,21,0.00,,,0.00,Weather View 32 v70,2013-06-08 14:53:00,
2013-06-08 08:58:00,70.0,27.0,29.98,East,90,5.0,9.0,20,0.00,,,0.00,Weather View 32 v70,2013-06-08 14:58:00,
2013-06-08 09:03:00,71.0,27.8,29.98,SE,135,5.0,9.0,20,0.00,,,0.00,Weather View 32 v70,2013-06-08 15:03:00,
2013-06-08 09:08:00,71.0,27.8,29.98,ESE,112,5.0,9.0,20,0.00,,,0.00,Weather View 32 v70,2013-06-08 15:08:00,
2013-06-08 09:13:00,72.0,27.4,29.98,ESE,112,4.0,9.0,19,0.00,,,0.00,Weather View 32 v70,2013-06-08 15:13:00,
2013-06-08 09:18:00,73.0,26.9,29.98,ESE,112,3.0,9.0,18,0.00,,,0.00,Weather View 32 v70,2013-06-08 15:18:00,
2013-06-08 09:23:00,73.0,26.9,29.98,ESE,112,4.0,9.0,18,0.00,,,0.00,Weather View 32 v70,2013-06-08 15:23:00,
2013-06-08 09:28:00,74.0,27.7,29.97,South,180,3.0,9.0,18,0.00,,,0.00,Weather View 32 v70,2013-06-08 15:28:00,
2013-06-08 09:33:00,75.0,28.5,29.97,SE,135,2.0,9.0,18,0.00,,,0.00,Weather View 32 v70,2013-06-08 15:33:00,
2013-06-08 09:38:00,76.0,27.9,29.96,SSE,157,3.0,9.0,17,0.00,,,0.00,Weather View 32 v70,2013-06-08 15:38:00,
2013-06-08 09:43:00,76.0,26.5,29.96,SE,135,4.0,9.0,16,0.00,,,0.00,Weather View 32 v70,2013-06-08 15:43:00,
2013-06-08 09:48:00,77.0,27.3,29.96,South,180,4.0,9.0,16,0.00,,,0.00,Weather View 32 v70,2013-06-08 15:48:00,
2013-06-08 09:53:00,78.0,28.1,29.96,South,180,1.0,9.0,16,0.00,,,0.00,Weather View 32 v70,2013-06-08 15:53:00,
2013-06-08 09:58:00,79.0,25.6,29.96,SW,225,3.0,9.0,14,0.00,,,0.00,Weather View 32 v70,2013-06-08 15:58:00,
2013-06-08 10:03:00,79.0,23.8,29.96,SW,225,0.0,8.0,13,0.00,,,0.00,Weather View 32 v70,2013-06-08 16:03:00,
2013-06-08 10:08:00,81.0,25.4,29.95,West,270,0.0,8.0,13,0.00,,,0.00,Weather View 32 v70,2013-06-08 16:08:00,
2013-06-08 10:13:00,81.0,25.4,29.95,SW,225,0.0,8.0,13,0.00,,,0.00,Weather View 32 v70,2013-06-08 16:13:00,
2013-06-08 10:18:00,82.0,26.2,29.94,SW,225,0.0,8.0,13,0.00,,,0.00,Weather View 32 v70,2013-06-08 16:18:00,
2013-06-08 10:23:00,82.0,26.2,29.94,SW,225,4.0,10.0,13,0.00,,,0.00,Weather View 32 v70,2013-06-08 16:23:00,
2013-06-08 10:28:00,83.0,28.8,29.94,SSW,202,6.0,10.0,14,0.00,,,0.00,Weather View 32 v70,2013-06-08 16:28:00,
2013-06-08 10:33:00,83.0,32.1,29.94,SW,225,7.0,10.0,16,0.00,,,0.00,Weather View 32 v70,2013-06-08 16:33:00,
2013-06-08 10:38:00,84.0,29.6,29.94,SW,225,6.0,10.0,14,0.00,,,0.00,Weather View 32 v70,2013-06-08 16:38:00,
2013-06-08 10:43:00,84.0,29.6,29.94,SW,225,8.0,12.0,14,0.00,,,0.00,Weather View 32 v70,2013-06-08 16:43:00,
2013-06-08 10:48:00,84.0,27.7,29.94,SW,225,6.0,12.0,13,0.00,,,0.00,Weather View 32 v70,2013-06-08 16:48:00,
2013-06-08 10:53:00,84.0,29.6,29.94,West,270,3.0,12.0,14,0.00,,,0.00,Weather View 32 v70,2013-06-08 16:53:00,
2013-06-08 10:58:00,84.0,29.6,29.93,SW,225,9.0,13.0,14,0.00,,,0.00,Weather View 32 v70,2013-06-08 16:58:00,
2013-06-08 11:03:00,84.0,32.9,29.93,SW,225,8.0,13.0,16,0.00,,,0.00,Weather View 32 v70,2013-06-08 17:03:00,
2013-06-08 11:08:00,85.0,32.1,29.93,SW,225,3.0,13.0,15,0.00,,,0.00,Weather View 32 v70,2013-06-08 17:08:00,
2013-06-08 11:13:00,85.0,32.1,29.93,SW,225,10.0,13.0,15,0.00,,,0.00,Weather View 32 v70,2013-06-08 17:13:00,
2013-06-08 11:18:00,85.0,33.7,29.92,West,270,6.0,13.0,16,0.00,,,0.00,Weather View 32 v70,2013-06-08 17:18:00,
2013-06-08 11:23:00,85.0,32.1,29.92,West,270,5.0,15.0,15,0.00,,,0.00,Weather View 32 v70,2013-06-08 17:23:00,
2013-06-08 11:28:00,86.0,31.1,29.92,West,270,8.0,15.0,14,0.00,,,0.00,Weather View 32 v70,2013-06-08 17:28:00,
2013-06-08 11:33:00,85.0,28.5,29.92,West,270,7.0,17.0,13,0.00,,,0.00,Weather View 32 v70,2013-06-08 17:33:00,
2013-06-08 11:38:00,86.0,31.1,29.91,West,270,6.0,17.0,14,0.00,,,0.00,Weather View 32 v70,2013-06-08 17:38:00,
2013-06-08 11:43:00,86.0,25.2,29.91,SW,225,18.0,19.0,11,0.00,,,0.00,Weather View 32 v70,2013-06-08 17:43:00,
2013-06-08 11:48:00,86.0,27.4,29.90,SW,225,10.0,21.0,12,0.00,,,0.00,Weather View 32 v70,2013-06-08 17:48:00,
2013-06-08 11:53:00,86.0,29.3,29.90,SW,225,8.0,21.0,13,0.00,,,0.00,Weather View 32 v70,2013-06-08 17:53:00,
2013-06-08 11:58:00,86.0,25.2,29.91,WSW,247,14.0,23.0,11,0.00,,,0.00,Weather View 32 v70,2013-06-08 17:58:00,
2013-06-08 12:03:00,86.0,27.4,29.91,West,270,15.0,23.0,12,0.00,,,0.00,Weather View 32 v70,2013-06-08 18:03:00,
2013-06-08 12:08:00,86.0,29.3,29.90,WNW,292,8.0,24.0,13,0.00,,,0.00,Weather View 32 v70,2013-06-08 18:08:00,
2013-06-08 12:13:00,86.0,29.3,29.90,West,270,10.0,24.0,13,0.00,,,0.00,Weather View 32 v70,2013-06-08 18:13:00,
2013-06-08 12:18:00,87.0,26.0,29.90,NW,315,6.0,24.0,11,0.00,,,0.00,Weather View 32 v70,2013-06-08 18:18:00,
2013-06-08 12:23:00,86.0,25.2,29.90,West,270,8.0,24.0,11,0.00,,,0.00,Weather View 32 v70,2013-06-08 18:23:00,
2013-06-08 12:28:00,87.0,26.0,29.90,West,270,15.0,24.0,11,0.00,,,0.00,Weather View 32 v70,2013-06-08 18:28:00,
2013-06-08 12:33:00,87.0,26.0,29.90,West,270,8.0,24.0,11,0.00,,,0.00,Weather View 32 v70,2013-06-08 18:33:00,
2013-06-08 12:38:00,87.0,28.1,29.90,West,270,10.0,24.0,12,0.00,,,0.00,Weather View 32 v70,2013-06-08 18:38:00,
2013-06-08 12:43:00,87.0,26.0,29.90,West,270,11.0,24.0,11,0.00,,,0.00,Weather View 32 v70,2013-06-08 18:43:00,
2013-06-08 12:48:00,87.0,26.0,29.90,West,270,14.0,24.0,11,0.00,,,0.00,Weather View 32 v70,2013-06-08 18:48:00,
2013-06-08 12:53:00,87.0,26.0,29.90,West,270,9.0,24.0,11,0.00,,,0.00,Weather View 32 v70,2013-06-08 18:53:00,
2013-06-08 12:58:00,87.0,28.1,29.90,West,270,6.0,24.0,12,0.00,,,0.00,Weather View 32 v70,2013-06-08 18:58:00,
2013-06-08 13:03:00,87.0,28.1,29.90,West,270,13.0,24.0,12,0.00,,,0.00,Weather View 32 v70,2013-06-08 19:03:00,
2013-06-08 13:08:00,87.0,23.7,29.90,NW,315,9.0,23.0,10,0.00,,,0.00,Weather View 32 v70,2013-06-08 19:08:00,
2013-06-08 13:13:00,87.0,30.1,29.90,West,270,11.0,23.0,13,0.00,,,0.00,Weather View 32 v70,2013-06-08 19:13:00,
2013-06-08 13:18:00,88.0,26.8,29.89,NW,315,5.0,24.0,11,0.00,,,0.00,Weather View 32 v70,2013-06-08 19:18:00,
2013-06-08 13:23:00,88.0,26.8,29.89,West,270,10.0,24.0,11,0.00,,,0.00,Weather View 32 v70,2013-06-08 19:23:00,
2013-06-08 13:28:00,89.0,27.5,29.89,SW,225,5.0,24.0,11,0.00,,,0.00,Weather View 32 v70,2013-06-08 19:28:00,
2013-06-08 13:33:00,89.0,27.5,29.89,WSW,247,16.0,24.0,11,0.00,,,0.00,Weather View 32 v70,2013-06-08 19:33:00,
2013-06-08 13:38:00,89.0,27.5,29.88,SW,225,6.0,24.0,11,0.00,,,0.00,Weather View 32 v70,2013-06-08 19:38:00,
2013-06-08 13:43:00,89.0,22.7,29.88,West,270,10.0,24.0,9,0.00,,,0.00,Weather View 32 v70,2013-06-08 19:43:00,
2013-06-08 13:48:00,89.0,25.2,29.88,NW,315,5.0,24.0,10,0.00,,,0.00,Weather View 32 v70,2013-06-08 19:48:00,
2013-06-08 13:53:00,89.0,27.5,29.88,West,270,9.0,26.0,11,0.00,,,0.00,Weather View 32 v70,2013-06-08 19:53:00,
2013-06-08 13:58:00,89.0,27.5,29.88,NW,315,6.0,26.0,11,0.00,,,0.00,Weather View 32 v70,2013-06-08 19:58:00,
2013-06-08 14:03:00,89.0,22.7,29.88,WSW,247,19.0,26.0,9,0.00,,,0.00,Weather View 32 v70,2013-06-08 20:03:00,
2013-06-08 14:08:00,89.0,27.5,29.88,WSW,247,11.0,26.0,11,0.00,,,0.00,Weather View 32 v70,2013-06-08 20:08:00,
2013-06-08 14:13:00,89.0,27.5,29.88,West,270,14.0,26.0,11,0.00,,,0.00,Weather View 32 v70,2013-06-08 20:13:00,
2013-06-08 14:18:00,89.0,27.5,29.86,WNW,292,18.0,26.0,11,0.00,,,0.00,Weather View 32 v70,2013-06-08 20:18:00,
2013-06-08 14:23:00,89.0,27.5,29.86,WSW,247,6.0,26.0,11,0.00,,,0.00,Weather View 32 v70,2013-06-08 20:23:00,
2013-06-08 14:28:00,90.0,28.3,29.86,West,270,13.0,26.0,11,0.00,,,0.00,Weather View 32 v70,2013-06-08 20:28:00,
2013-06-08 14:33:00,89.0,27.5,29.86,NW,315,7.0,26.0,11,0.00,,,0.00,Weather View 32 v70,2013-06-08 20:33:00,
2013-06-08 14:38:00,90.0,28.3,29.86,WNW,292,9.0,26.0,11,0.00,,,0.00,Weather View 32 v70,2013-06-08 20:38:00,
2013-06-08 14:43:00,90.0,26.0,29.86,NW,315,9.0,26.0,10,0.00,,,0.00,Weather View 32 v70,2013-06-08 20:43:00,
2013-06-08 14:48:00,90.0,26.0,29.85,West,270,11.0,33.0,10,0.00,,,0.00,Weather View 32 v70,2013-06-08 20:48:00,
2013-06-08 14:53:00,90.0,28.3,29.85,NW,315,16.0,33.0,11,0.00,,,0.00,Weather View 32 v70,2013-06-08 20:53:00,
2013-06-08 14:58:00,90.0,26.0,29.85,West,270,10.0,33.0,10,0.00,,,0.00,Weather View 32 v70,2013-06-08 20:58:00,
2013-06-08 15:03:00,90.0,23.5,29.85,NW,315,10.0,33.0,9,0.00,,,0.00,Weather View 32 v70,2013-06-08 21:03:00,
2013-06-08 15:08:00,90.0,23.5,29.85,NW,315,10.0,33.0,9,0.00,,,0.00,Weather View 32 v70,2013-06-08 21:08:00,
2013-06-08 15:13:00,90.0,23.5,29.85,WNW,292,10.0,33.0,9,0.00,,,0.00,Weather View 32 v70,2013-06-08 21:13:00,
2013-06-08 15:18:00,91.0,24.2,29.84,NW,315,26.0,33.0,9,0.00,,,0.00,Weather View 32 v70,2013-06-08 21:18:00,
2013-06-08 15:23:00,90.0,26.0,29.84,WNW,292,4.0,33.0,10,0.00,,,0.00,Weather View 32 v70,2013-06-08 21:23:00,
2013-06-08 15:28:00,91.0,24.2,29.84,NNW,337,7.0,33.0,9,0.00,,,0.00,Weather View 32 v70,2013-06-08 21:28:00,
2013-06-08 15:33:00,91.0,31.2,29.84,WNW,292,15.0,33.0,12,0.00,,,0.00,Weather View 32 v70,2013-06-08 21:33:00,
2013-06-08 15:38:00,91.0,24.2,29.84,West,270,10.0,33.0,9,0.00,,,0.00,Weather View 32 v70,2013-06-08 21:38:00,
2013-06-08 15:43:00,91.0,24.2,29.84,SW,225,9.0,33.0,9,0.00,,,0.00,Weather View 32 v70,2013-06-08 21:43:00,
2013-06-08 15:48:00,91.0,26.7,29.84,West,270,10.0,29.0,10,0.00,,,0.00,Weather View 32 v70,2013-06-08 21:48:00,
2013-06-08 15:53:00,91.0,24.2,29.84,WSW,247,5.0,27.0,9,0.00,,,0.00,Weather View 32 v70,2013-06-08 21:53:00,
2013-06-08 15:58:00,91.0,24.2,29.83,WSW,247,9.0,27.0,9,0.00,,,0.00,Weather View 32 v70,2013-06-08 21:58:00,
2013-06-08 16:03:00,91.0,24.2,29.83,West,270,19.0,27.0,9,0.00,,,0.00,Weather View 32 v70,2013-06-08 22:03:00,
2013-06-08 16:08:00,91.0,24.2,29.83,NW,315,8.0,27.0,9,0.00,,,0.00,Weather View 32 v70,2013-06-08 22:08:00,
2013-06-08 16:13:00,90.0,23.5,29.83,SW,225,10.0,27.0,9,0.00,,,0.00,Weather View 32 v70,2013-06-08 22:13:00,
2013-06-08 16:18:00,91.0,21.4,29.83,WNW,292,9.0,27.0,8,0.00,,,0.00,Weather View 32 v70,2013-06-08 22:18:00,
2013-06-08 16:23:00,90.0,23.5,29.83,West,270,11.0,27.0,9,0.00,,,0.00,Weather View 32 v70,2013-06-08 22:23:00,
2013-06-08 16:28:00,91.0,24.2,29.82,West,270,10.0,27.0,9,0.00,,,0.00,Weather View 32 v70,2013-06-08 22:28:00,
2013-06-08 16:33:00,90.0,23.5,29.82,West,270,12.0,27.0,9,0.00,,,0.00,Weather View 32 v70,2013-06-08 22:33:00,
2013-06-08 16:38:00,91.0,24.2,29.82,North,360,13.0,27.0,9,0.00,,,0.00,Weather View 32 v70,2013-06-08 22:38:00,
2013-06-08 16:43:00,91.0,24.2,29.82,WNW,292,8.0,27.0,9,0.00,,,0.00,Weather View 32 v70,2013-06-08 22:43:00,
2013-06-08 16:48:00,91.0,24.2,29.83,WNW,292,10.0,32.0,9,0.00,,,0.00,Weather View 32 v70,2013-06-08 22:48:00,
2013-06-08 16:53:00,91.0,24.2,29.83,NW,315,15.0,32.0,9,0.00,,,0.00,Weather View 32 v70,2013-06-08 22:53:00,
2013-06-08 16:58:00,91.0,21.4,29.83,West,270,9.0,32.0,8,0.00,,,0.00,Weather View 32 v70,2013-06-08 22:58:00,
2013-06-08 17:03:00,91.0,24.2,29.83,West,270,17.0,32.0,9,0.00,,,0.00,Weather View 32 v70,2013-06-08 23:03:00,
2013-06-08 17:08:00,91.0,24.2,29.82,WSW,247,7.0,32.0,9,0.00,,,0.00,Weather View 32 v70,2013-06-08 23:08:00,
2013-06-08 17:13:00,91.0,24.2,29.82,West,270,11.0,32.0,9,0.00,,,0.00,Weather View 32 v70,2013-06-08 23:13:00,
2013-06-08 17:18:00,91.0,21.4,29.82,NW,315,8.0,32.0,8,0.00,,,0.00,Weather View 32 v70,2013-06-08 23:18:00,
2013-06-08 17:23:00,91.0,24.2,29.82,NW,315,10.0,32.0,9,0.00,,,0.00,Weather View 32 v70,2013-06-08 23:23:00,
2013-06-08 17:28:00,92.0,22.1,29.82,NW,315,13.0,32.0,8,0.00,,,0.00,Weather View 32 v70,2013-06-08 23:28:00,
2013-06-08 17:33:00,91.0,24.2,29.82,NW,315,12.0,32.0,9,0.00,,,0.00,Weather View 32 v70,2013-06-08 23:33:00,
2013-06-08 17:38:00,92.0,22.1,29.81,West,270,15.0,32.0,8,0.00,,,0.00,Weather View 32 v70,2013-06-08 23:38:00,
2013-06-08 17:43:00,91.0,21.4,29.81,WSW,247,5.0,32.0,8,0.00,,,0.00,Weather View 32 v70,2013-06-08 23:43:00,
2013-06-08 17:48:00,92.0,15.4,29.81,North,360,16.0,30.0,6,0.00,,,0.00,Weather View 32 v70,2013-06-08 23:48:00,
2013-06-08 17:53:00,92.0,19.0,29.81,NW,315,4.0,30.0,7,0.00,,,0.00,Weather View 32 v70,2013-06-08 23:53:00,
2013-06-08 18:00:00,92.0,15.4,29.81,North,360,10.0,30.0,6,0.00,,,0.00,Weather View 32 v70,2013-06-09 00:00:00,
2013-06-08 18:05:00,91.0,10.6,29.81,North,360,17.0,30.0,5,0.00,,,0.00,Weather View 32 v70,2013-06-09 00:05:00,
2013-06-08 18:10:00,91.0,14.7,29.82,NW,315,9.0,30.0,6,0.00,,,0.00,Weather View 32 v70,2013-06-09 00:10:00,
2013-06-08 18:15:00,91.0,10.6,29.82,NW,315,14.0,26.0,5,0.00,,,0.00,Weather View 32 v70,2013-06-09 00:15:00,
2013-06-08 18:20:00,91.0,14.7,29.82,NW,315,8.0,29.0,6,0.00,,,0.00,Weather View 32 v70,2013-06-09 00:20:00,
2013-06-08 18:25:00,91.0,14.7,29.82,NW,315,4.0,29.0,6,0.00,,,0.00,Weather View 32 v70,2013-06-09 00:25:00,
2013-06-08 18:30:00,91.0,10.6,29.82,NW,315,19.0,29.0,5,0.00,,,0.00,Weather View 32 v70,2013-06-09 00:30:00,
2013-06-08 18:35:00,91.0,14.7,29.82,NW,315,10.0,29.0,6,0.00,,,0.00,Weather View 32 v70,2013-06-09 00:35:00,
2013-06-08 18:40:00,91.0,14.7,29.82,NW,315,13.0,29.0,6,0.00,,,0.00,Weather View 32 v70,2013-06-09 00:40:00,
2013-06-08 18:45:00,91.0,10.6,29.82,WNW,292,22.0,29.0,5,0.00,,,0.00,Weather View 32 v70,2013-06-09 00:45:00,
2013-06-08 18:50:00,90.0,14.0,29.82,North,360,12.0,29.0,6,0.00,,,0.00,Weather View 32 v70,2013-06-09 00:50:00,
2013-06-08 18:54:00,90.0,14.0,29.82,NW,315,7.0,29.0,6,0.00,,,0.00,Weather View 32 v70,2013-06-09 00:54:00,
2013-06-08 18:59:00,90.0,14.0,29.82,NW,315,19.0,29.0,6,0.00,,,0.00,Weather View 32 v70,2013-06-09 00:59:00,
2013-06-08 19:04:00,90.0,14.0,29.82,NW,315,13.0,29.0,6,0.00,,,0.00,Weather View 32 v70,2013-06-09 01:04:00,
2013-06-08 19:09:00,90.0,14.0,29.83,North,360,14.0,29.0,6,0.00,,,0.00,Weather View 32 v70,2013-06-09 01:09:00,
2013-06-08 19:14:00,89.0,13.3,29.83,NNE,22,18.0,29.0,6,0.00,,,0.00,Weather View 32 v70,2013-06-09 01:14:00,
2013-06-08 19:19:00,89.0,13.3,29.84,NNE,22,13.0,27.0,6,0.00,,,0.00,Weather View 32 v70,2013-06-09 01:19:00,
2013-06-08 19:24:00,89.0,13.3,29.84,NW,315,9.0,27.0,6,0.00,,,0.00,Weather View 32 v70,2013-06-09 01:24:00,
2013-06-08 19:29:00,89.0,13.3,29.84,North,360,19.0,27.0,6,0.00,,,0.00,Weather View 32 v70,2013-06-09 01:29:00,
2013-06-08 19:34:00,89.0,13.3,29.84,North,360,11.0,27.0,6,0.00,,,0.00,Weather View 32 v70,2013-06-09 01:34:00,
2013-06-08 19:39:00,89.0,13.3,29.85,NW,315,8.0,27.0,6,0.00,,,0.00,Weather View 32 v70,2013-06-09 01:39:00,
2013-06-08 19:44:00,88.0,12.6,29.85,NW,315,10.0,27.0,6,0.00,,,0.00,Weather View 32 v70,2013-06-09 01:44:00,
2013-06-08 19:49:00,88.0,12.6,29.85,NW,315,15.0,27.0,6,0.00,,,0.00,Weather View 32 v70,2013-06-09 01:49:00,
2013-06-08 19:54:00,88.0,12.6,29.85,North,360,10.0,27.0,6,0.00,,,0.00,Weather View 32 v70,2013-06-09 01:54:00,
2013-06-08 19:59:00,88.0,12.6,29.85,North,360,11.0,27.0,6,0.00,,,0.00,Weather View 32 v70,2013-06-09 01:59:00,
2013-06-08 20:04:00,87.0,11.9,29.85,North,360,12.0,27.0,6,0.00,,,0.00,Weather View 32 v70,2013-06-09 02:04:00,
2013-06-08 20:09:00,87.0,11.9,29.86,NW,315,7.0,27.0,6,0.00,,,0.00,Weather View 32 v70,2013-06-09 02:09:00,
2013-06-08 20:14:00,87.0,11.9,29.86,North,360,5.0,25.0,6,0.00,,,0.00,Weather View 32 v70,2013-06-09 02:14:00,
2013-06-08 20:19:00,86.0,14.6,29.87,NNW,337,10.0,25.0,7,0.00,,,0.00,Weather View 32 v70,2013-06-09 02:19:00,
2013-06-08 20:24:00,86.0,14.6,29.87,NNW,337,7.0,22.0,7,0.00,,,0.00,Weather View 32 v70,2013-06-09 02:24:00,
2013-06-08 20:29:00,86.0,14.6,29.88,North,360,9.0,22.0,7,0.00,,,0.00,Weather View 32 v70,2013-06-09 02:29:00,
2013-06-08 20:34:00,85.0,13.9,29.88,NW,315,5.0,20.0,7,0.00,,,0.00,Weather View 32 v70,2013-06-09 02:34:00,
2013-06-08 20:39:00,85.0,13.9,29.88,NW,315,7.0,19.0,7,0.00,,,0.00,Weather View 32 v70,2013-06-09 02:39:00,
2013-06-08 20:44:00,85.0,17.0,29.88,NW,315,8.0,19.0,8,0.00,,,0.00,Weather View 32 v70,2013-06-09 02:44:00,
2013-06-08 20:49:00,84.0,16.2,29.88,NNW,337,6.0,19.0,8,0.00,,,0.00,Weather View 32 v70,2013-06-09 02:49:00,
2013-06-08 20:54:00,84.0,16.2,29.88,NW,315,9.0,19.0,8,0.00,,,0.00,Weather View 32 v70,2013-06-09 02:54:00,
2013-06-08 20:59:00,84.0,16.2,29.90,NW,315,5.0,18.0,8,0.00,,,0.00,Weather View 32 v70,2013-06-09 02:59:00,
2013-06-08 21:04:00,83.0,15.5,29.90,North,360,6.0,17.0,8,0.00,,,0.00,Weather View 32 v70,2013-06-09 03:04:00,
2013-06-08 21:09:00,83.0,15.5,29.90,NNW,337,7.0,17.0,8,0.00,,,0.00,Weather View 32 v70,2013-06-09 03:09:00,
2013-06-08 21:14:00,83.0,15.5,29.90,North,360,5.0,17.0,8,0.00,,,0.00,Weather View 32 v70,2013-06-09 03:14:00,
2013-06-08 21:19:00,83.0,15.5,29.90,North,360,6.0,17.0,8,0.00,,,0.00,Weather View 32 v70,2013-06-09 03:19:00,
2013-06-08 21:24:00,83.0,15.5,29.90,North,360,10.0,17.0,8,0.00,,,0.00,Weather View 32 v70,2013-06-09 03:24:00,
2013-06-08 21:29:00,82.0,14.8,29.91,North,360,5.0,16.0,8,0.00,,,0.00,Weather View 32 v70,2013-06-09 03:29:00,
2013-06-08 21:34:00,82.0,17.5,29.91,North,360,6.0,16.0,9,0.00,,,0.00,Weather View 32 v70,2013-06-09 03:34:00,
2013-06-08 21:39:00,82.0,17.5,29.91,NNE,22,7.0,12.0,9,0.00,,,0.00,Weather View 32 v70,2013-06-09 03:39:00,
2013-06-08 21:44:00,81.0,16.7,29.91,NNW,337,7.0,14.0,9,0.00,,,0.00,Weather View 32 v70,2013-06-09 03:44:00,
2013-06-08 21:49:00,81.0,16.7,29.92,North,360,8.0,14.0,9,0.00,,,0.00,Weather View 32 v70,2013-06-09 03:49:00,
2013-06-08 21:54:00,81.0,16.7,29.92,North,360,8.0,14.0,9,0.00,,,0.00,Weather View 32 v70,2013-06-09 03:54:00,
2013-06-08 21:59:00,80.0,16.0,29.92,North,360,6.0,14.0,9,0.00,,,0.00,Weather View 32 v70,2013-06-09 03:59:00,
2013-06-08 22:01:00,80.0,16.0,29.92,North,360,7.0,14.0,9,0.00,,,0.00,Weather View 32 v70,2013-06-09 04:01:00,
2013-06-08 22:06:00,80.0,16.0,29.92,North,360,7.0,14.0,9,0.00,,,0.00,Weather View 32 v70,2013-06-09 04:06:00,
2013-06-08 22:11:00,80.0,16.0,29.93,NNW,337,6.0,14.0,9,0.00,,,0.00,Weather View 32 v70,2013-06-09 04:11:00,
2013-06-08 22:16:00,80.0,16.0,29.93,North,360,5.0,14.0,9,0.00,,,0.00,Weather View 32 v70,2013-06-09 04:16:00,
2013-06-08 22:21:00,80.0,16.0,29.93,NW,315,8.0,14.0,9,0.00,,,0.00,Weather View 32 v70,2013-06-09 04:21:00,
2013-06-08 22:26:00,80.0,16.0,29.93,North,360,8.0,14.0,9,0.00,,,0.00,Weather View 32 v70,2013-06-09 04:26:00,
2013-06-08 22:31:00,79.0,17.7,29.94,North,360,7.0,14.0,10,0.00,,,0.00,Weather View 32 v70,2013-06-09 04:31:00,
2013-06-08 22:36:00,79.0,15.2,29.94,North,360,7.0,14.0,9,0.00,,,0.00,Weather View 32 v70,2013-06-09 04:36:00,
2013-06-08 22:41:00,79.0,17.7,29.94,North,360,6.0,14.0,10,0.00,,,0.00,Weather View 32 v70,2013-06-09 04:41:00,
2013-06-08 22:46:00,79.0,17.7,29.94,North,360,7.0,13.0,10,0.00,,,0.00,Weather View 32 v70,2013-06-09 04:46:00,
2013-06-08 22:51:00,79.0,15.2,29.94,North,360,6.0,13.0,9,0.00,,,0.00,Weather View 32 v70,2013-06-09 04:51:00,
2013-06-08 22:56:00,79.0,17.7,29.94,North,360,6.0,13.0,10,0.00,,,0.00,Weather View 32 v70,2013-06-09 04:56:00,
2013-06-08 23:01:00,79.0,17.7,29.94,North,360,10.0,13.0,10,0.00,,,0.00,Weather View 32 v70,2013-06-09 05:01:00,
2013-06-08 23:06:00,79.0,17.7,29.94,North,360,7.0,13.0,10,0.00,,,0.00,Weather View 32 v70,2013-06-09 05:06:00,
2013-06-08 23:11:00,78.0,16.9,29.94,North,360,6.0,13.0,10,0.00,,,0.00,Weather View 32 v70,2013-06-09 05:11:00,
2013-06-08 23:17:00,78.0,19.1,29.94,North,360,7.0,13.0,11,0.00,,,0.00,Weather View 32 v70,2013-06-09 05:17:00,
2013-06-08 23:22:00,77.0,18.4,29.95,NE,45,5.0,13.0,11,0.00,,,0.00,Weather View 32 v70,2013-06-09 05:22:00,
2013-06-08 23:27:00,77.0,18.4,29.95,NNE,22,9.0,12.0,11,0.00,,,0.00,Weather View 32 v70,2013-06-09 05:27:00,
2013-06-08 23:32:00,77.0,18.4,29.95,NNE,22,8.0,12.0,11,0.00,,,0.00,Weather View 32 v70,2013-06-09 05:32:00,
2013-06-08 23:37:00,76.0,17.6,29.95,NNE,22,10.0,12.0,11,0.00,,,0.00,Weather View 32 v70,2013-06-09 05:37:00,
2013-06-08 23:42:00,76.0,17.6,29.95,North,360,7.0,12.0,11,0.00,,,0.00,Weather View 32 v70,2013-06-09 05:42:00,
2013-06-08 23:48:00,76.0,19.6,29.95,North,360,6.0,13.0,12,0.00,,,0.00,Weather View 32 v70,2013-06-09 05:48:00,
2013-06-08 23:53:00,75.0,20.7,29.95,North,360,8.0,13.0,13,0.00,,,0.00,Weather View 32 v70,2013-06-09 05:53:00,
2013-06-08 23:58:00,75.0,20.7,29.95,North,360,11.0,13.0,13,0.00,,,0.00,Weather View 32 v70,2013-06-09 05:58:00,